This is the latest recevied weather packets stored in our database for station/object KE5WTH-14. If no packets are shown the sender has not sent any weather packets the latest 10 day(s).
| Time | Temp. | Humidity | Pressure | Rain* | Wind** | Luminosity | Snow |
|---|---|---|---|---|---|---|---|
| 1777642987 | 13.89° C | 83% | 1017.1 hPa | 0 mm | - | 69 W/m² | - |
| 1777642908 | 13.89° C | 83% | 1017 hPa | 0 mm | - | 70 W/m² | - |
| 1777642845 | 13.89° C | 83% | 1017.1 hPa | 0 mm | - | 76 W/m² | - |
| 1777642784 | 13.89° C | 82% | 1017.1 hPa | 0 mm | - | 76 W/m² | - |
| 1777642720 | 13.89° C | 83% | 1017.1 hPa | 0 mm | - | 79 W/m² | - |
| 1777642656 | 13.89° C | 83% | 1017.3 hPa | 0 mm | - | 81 W/m² | - |
| 1777642594 | 13.33° C | 83% | 1017.2 hPa | 0 mm | - | 83 W/m² | - |
| 1777642534 | 13.33° C | 82% | 1017.3 hPa | 0 mm | - | 86 W/m² | - |
| 1777642473 | 13.33° C | 82% | 1017.3 hPa | 0 mm | - | 86 W/m² | - |
| 1777642345 | 13.33° C | 82% | 1017.5 hPa | 0 mm | - | 77 W/m² | - |
| 1777642287 | 13.33° C | 82% | 1017.5 hPa | 0 mm | - | 72 W/m² | - |
| 1777642220 | 13.33° C | 83% | 1017.5 hPa | 0 mm | - | 63 W/m² | - |
| 1777642158 | 13.33° C | 83% | 1017.5 hPa | 0 mm | - | 55 W/m² | - |
| 1777642097 | 13.33° C | 83% | 1017.5 hPa | 0 mm | - | 48 W/m² | - |
| 1777642036 | 13.33° C | 83% | 1017.5 hPa | 0 mm | - | 42 W/m² | - |
| 1777642005 | 13.33° C | 82% | 1017.6 hPa | 0 mm | - | 41 W/m² | - |
| 1777641978 | 13.33° C | 83% | 1017.5 hPa | 0 mm | - | 41 W/m² | - |
| 1777641949 | 13.33° C | 83% | 1017.4 hPa | 0 mm | - | 40 W/m² | - |
| 1777641793 | 13.33° C | 83% | 1017.3 hPa | 0 mm | - | 40 W/m² | - |
| 1777641731 | 13.33° C | 83% | 1017.3 hPa | 0 mm | - | 40 W/m² | - |
| 1777641673 | 13.33° C | 83% | 1017.3 hPa | 0 mm | - | 40 W/m² | - |
| 1777641612 | 13.33° C | 83% | 1017.3 hPa | 0 mm | - | 40 W/m² | - |
| 1777641552 | 13.33° C | 83% | 1017.2 hPa | 0 mm | - | 42 W/m² | - |
| 1777641488 | 13.33° C | 83% | 1017.2 hPa | 0 mm | - | 42 W/m² | - |
| 1777641426 | 13.33° C | 83% | 1017.2 hPa | 0 mm | - | 44 W/m² | - |
* Rain latest hour (hover to see other rain measurements)
** Current wind speed in m/s (hover to see current wind gust speed)